[Date Prev][Date Next][Thread Prev][Thread Next] - [Date Index][Thread Index][Author Index]
2 Line ISS Keps 2-5
- Subject: [sarex] 2 Line ISS Keps 2-5
- From: "Dave Larsen PhD" <doc@xxxxxxxxxxx>
- Date: Sat, 5 Feb 2005 03:36:08 -0800
ISS
1 25544U 98067A 05036.45724633 .00010367 00000-0 86964-4 0 7462
2 25544 51.6449 214.5124 0009674 67.6823 334.5218 15.70567342354972
----
Via the sarex mailing list at AMSAT.ORG courtesy of AMSAT-NA.
To unsubscribe, send "unsubscribe sarex" to Majordomo@amsat.org
AMSAT Home